STARLINK-35671, 66392

Orbit data source: Space-Track

STARLINK-35671, 66392 is a payload satellite owned by SpaceX/Seattle (US) in LEO that was launched on Sat, 08 Nov 2025 UTC via an FALCON 9 launch vehicle from the Air Force Eastern Test Range (AFETR). Payload-class satellites include a variety of spacecraft equipped with specific instruments for various scientific and technological missions. These include communications satellites like Starlink; space stations such as the ISS; scientific satellites like the Hubble; Earth observation satellites from companies like Planet Labs, Umbra, and HawkEye 360; GPS; miniature CubeSats for education and research; and military/defense satellites.

Loading next visibility...
Identifier
66392, 2025-257N
Orbit
LEO
Country
Flag of USUS
Related business
Manufacturer
SpaceX/Seattle
Mission
Operational Commercial Communications
Bus & Motor
STARLINK V2MO, Unknown motor
Mass
575 kg wet, ~530 kg dry
Launch date (UTC)
2025-11-08 (7 months ago)
Launch vehicle
FALCON 9
Launch site
Air Force Eastern Test Range (AFETR)
Object type
Payload
Rocket body
Debris
Shape & HBR
Box + 2 Pan, 17.7 m
Radar Cross Section
36.964 m², Large (>1 m²)

Expand to show TLE details & history
Last TLE update: 2 days ago

TLE from 2 days ago
0 STARLINK-35671
1 66392U 25257N   26170.09595456  .00023139  00000-0  79071-3 0  9991
2 66392  53.1593 105.6902 0001265  83.9651 276.1494 15.30208564 35266
Epoch: 2026-06-19T02:18Z
TLE epoch observation values (Epoch: 2026-06-19T02:18:10.473Z)
Latitude
0.00001°
Longitude
163.81673°
Altitude
475.996 km
Speed
7.629 km/s
True Right ascension
07h 02m 45s
True Declination
0° 00' 00"
Sunlit
Object was in daylight at epoch
Visualization orbit readout
Latitude
Unknown
Longitude
Unknown
Altitude
Unknown
Speed
Unknown
Apparent Right ascension
Unknown
Apparent Declination
Unknown
Sunlit
N/A
Visualization observer readout
Local Sidereal Time
07:17:56
Azimuth
Unknown
Elevation
Unknown
Doppler factor
Unknown
Orbital elements
Apogee altitude
476.313 km
Perigee altitude
474.579 km
Semi-major axis
6,853.583 km
Eccentricity
0.00013
Inclination
53.1593°
RAAN
105.6902°
Arg. of periapsis
83.9651°
True anomaly
276.13499°
Mean anomaly
276.1494°
Eccentric anomaly
276.14219°
Mean motion
3.82531 °/min
Orbital period
94.11 mins
BSTAR
0.00079071
Loading maneuver chart data...
Computing Atmospheric mass density...
Loading historical data...
Loading historical data...
Loading historical data...
Loading historical data...
Loading historical data...
Loading historical data...
Loading historical data...

Documentation

Showing up to 5 results
|